Starlink 4307

operational
NORAD ID: 53063 Int'l Des: 2022-077 Owner: SPXS Country: US Constellation: starlink
LEOCIRCULARRETROGRADESSO

About Starlink 4307

Description loading...

Live Position

Loading 3D Globe...

Upcoming Passes

Altitude History

Altitude vs Time

uPlot chart will show altitude changes over time

Two-Line Element Set

1 53063U 22077W 26034.07095536 .00000227 00000-0 19958-4 0 9992
2 53063 97.6027 217.0463 0001384 84.7601 275.3784 15.05647109 67350
Epoch: Feb 3, 2026 • Age: 8 hours

Current Status

Altitude 572.8 km
Velocity 7.57 km/s
Sub-Earth Point -58.10°S, 45.16°W
Launch Date Jul 11, 2022
Age 3.5 years
Type internet

Technical Details

Classification Payload
Mass 297.00 kg
Dry Mass 275.00 kg
Total Mass 297.00 kg
Length 0.20 m
Diameter 2.80 m
Span 9.00 m
Shape Box + pan
Manufacturer SPXS
Bus Type Starlink
Phase Status In Orbit
Owner/State SPXS/US

Large Constellations

Loading constellations...